Location: Sternwarte Stuttgart
(48.7670°N, 9.1830°E)
Time: 01:10:09
(UTC+02:00)

ISS - All Passes

Search period start: 02 May 2016 00:00
Search period end: 12 May 2016 00:00
Orbit: 402 x 405 km, 51.6° (Epoch: 01 May)

Date Brightness Start Highest point End Pass type
(mag) Time Alt. Az. Time Alt. Az. Time Alt. Az.
02 May - 08:02:06 10° S 08:03:50 14° SE 08:05:36 10° ESE daylight
02 May - 09:36:34 10° WSW 09:39:49 66° SSE 09:43:04 10° ENE daylight
02 May - 11:13:10 10° W 11:16:22 51° N 11:19:36 10° ENE daylight
02 May - 12:49:51 10° WNW 12:53:07 63° NNE 12:56:23 10° E daylight
02 May - 14:26:27 10° WNW 14:29:30 36° SSW 14:32:32 10° SE daylight
03 May - 08:44:17 10° SW 08:47:23 42° SSE 08:50:31 10° ENE daylight
03 May - 10:20:34 10° W 10:23:49 59° NNW 10:27:04 10° ENE daylight
03 May - 11:57:20 10° WNW 12:00:33 52° N 12:03:46 10° E daylight
03 May - 13:33:52 10° WNW 13:37:05 58° SSW 13:40:18 10° SE daylight
03 May - 15:11:43 10° WSW 15:12:59 12° SW 15:14:15 10° SSW daylight
04 May - 07:52:14 10° SSW 07:55:02 26° SE 07:57:50 10° E daylight
04 May - 09:28:00 10° WSW 09:31:16 77° NNW 09:34:33 10° ENE daylight
04 May - 11:04:46 10° WNW 11:07:59 48° N 11:11:10 10° ENE daylight
04 May - 12:41:20 10° WNW 12:44:37 87° SSW 12:47:53 10° ESE daylight
04 May - 14:18:18 10° W 14:20:44 19° SW 14:23:11 10° S daylight
05 May - 07:00:36 10° S 07:02:43 16° SE 07:04:51 10° E daylight
05 May - 08:35:30 10° WSW 08:38:45 76° SSE 08:42:02 10° ENE daylight
05 May - 10:12:10 10° W 10:15:22 49° N 10:18:34 10° ENE daylight
05 May - 11:48:49 10° WNW 11:52:05 69° NNE 11:55:21 10° E daylight
05 May - 13:25:27 10° W 13:28:24 31° SW 13:31:20 10° SSE daylight
06 May - 07:43:07 10° SW 07:46:17 49° SSE 07:49:29 10° ENE daylight
06 May - 09:19:32 10° W 09:22:46 56° N 09:26:00 10° ENE daylight
06 May - 10:56:17 10° WNW 10:59:31 55° N 11:02:44 10° E daylight
06 May - 12:32:48 10° WNW 12:35:59 50° SSW 12:39:10 10° SE daylight
07 May - 06:50:57 10° SSW 06:53:52 30° SE 06:56:48 10° E daylight
07 May - 08:26:54 10° W 08:30:11 70° NNW 08:33:27 10° ENE daylight
07 May - 10:03:41 10° WNW 10:06:54 49° N 10:10:05 10° E daylight
07 May - 11:40:14 10° WNW 11:43:30 78° SSW 11:46:46 10° ESE daylight
07 May - 13:17:23 10° W 13:19:33 17° SW 13:21:43 10° S daylight
08 May - 05:59:07 10° S 06:01:31 19° SE 06:03:55 10° E daylight
08 May - 07:34:21 10° WSW 07:37:37 86° SSE 07:40:55 10° ENE daylight
08 May - 09:11:04 10° W 09:14:15 48° N 09:17:27 10° ENE daylight
08 May - 10:47:41 10° WNW 10:50:58 75° NNE 10:54:13 10° ESE daylight
08 May - 12:24:24 10° W 12:27:12 27° SW 12:30:01 10° SSE daylight
09 May - 05:08:04 10° SSE 05:09:13 11° SE 05:10:21 10° ESE visible
09 May - 06:41:54 10° SW 06:45:06 57° SSE 06:48:20 10° ENE daylight
09 May - 08:18:24 10° W 08:21:37 53° N 08:24:50 10° ENE daylight
09 May - 09:55:07 10° WNW 09:58:21 59° NNE 10:01:36 10° E daylight
09 May - 11:31:39 10° WNW 11:34:48 43° SSW 11:37:54 10° SE daylight
10 May - 05:49:36 10° SW 05:52:38 35° SSE 05:55:40 10° E daylight
10 May - 07:25:44 10° W 07:29:00 64° NNW 07:32:15 10° ENE daylight
10 May - 09:02:31 10° WNW 09:05:43 50° N 09:08:55 10° E daylight
10 May - 10:39:02 10° WNW 10:42:18 68° SSW 10:45:32 10° ESE daylight
10 May - 12:16:27 10° WSW 12:18:16 14° SW 12:20:05 10° S daylight
11 May - 04:57:37 10° SSW 05:00:13 22° SE 05:02:50 10° E visible
11 May - 06:33:07 10° WSW 06:36:23 85° NNW 06:39:41 10° ENE daylight
11 May - 08:09:52 10° WNW 08:13:03 48° N 08:16:15 10° ENE daylight
11 May - 09:46:27 10° WNW 09:49:44 83° NNE 09:53:00 10° ESE daylight
11 May - 11:23:15 10° W 11:25:55 23° SW 11:28:34 10° SSE daylight
